This is the latest recevied weather packets stored in our database for station/object KD8OZS. If no packets are shown the sender has not sent any weather packets the latest 10 day(s).
| Time | Temp. | Humidity | Pressure | Rain* | Wind** | Luminosity | Snow |
|---|---|---|---|---|---|---|---|
| 1788052011 | 18.33° C | 94% | 1013.3 hPa | 0 mm | - | 0 W/m² | - |
| 1788051705 | 18.33° C | 93% | 1013.2 hPa | 0 mm | - | 0 W/m² | - |
| 1788051404 | 18.89° C | 93% | 1013.2 hPa | 0 mm | - | 0 W/m² | - |
| 1788051103 | 18.89° C | 93% | 1013.1 hPa | 0 mm | - | 0 W/m² | - |
| 1788050802 | 18.89° C | 93% | 1013 hPa | 0 mm | - | 0 W/m² | - |
| 1788050492 | 18.89° C | 92% | 1013 hPa | 0 mm | - | 0 W/m² | - |
| 1788050187 | 18.89° C | 92% | 1013 hPa | 0 mm | - | 0 W/m² | - |
| 1788049881 | 19.44° C | 92% | 1013.1 hPa | 0 mm | - | 0 W/m² | - |
| 1788049574 | 19.44° C | 91% | 1012.9 hPa | 0 mm | - | 0 W/m² | - |
| 1788049270 | 19.44° C | 91% | 1013.2 hPa | 0 mm | - | 0 W/m² | - |
| 1788048970 | 20° C | 91% | 1013.1 hPa | 0 mm | - | 0 W/m² | - |
| 1788048666 | 20° C | 91% | 1013.2 hPa | 0 mm | - | 0 W/m² | - |
| 1788048364 | 20° C | 90% | 1013.5 hPa | 0 mm | - | 0 W/m² | - |
| 1788048057 | 20° C | 90% | 1013.1 hPa | 0 mm | - | 1 W/m² | - |
| 1788047754 | 20.56° C | 90% | 1013.4 hPa | 0 mm | - | 4 W/m² | - |
| 1788047454 | 20.56° C | 89% | 1013.2 hPa | 0 mm | - | 7 W/m² | - |
| 1788047149 | 20.56° C | 89% | 1013.2 hPa | 0 mm | - | 9 W/m² | - |
| 1788046844 | 21.11° C | 89% | 1013.4 hPa | 0 mm | - | 10 W/m² | - |
| 1788046543 | 21.11° C | 88% | 1013.3 hPa | 0 mm | - | 12 W/m² | - |
| 1788046239 | 21.67° C | 87% | 1013.5 hPa | 0 mm | - | 16 W/m² | - |
| 1788045936 | 21.67° C | 85% | 1013.5 hPa | 0 mm | - | 29 W/m² | - |
| 1788045632 | 21.67° C | 85% | 1013.5 hPa | 0 mm | - | 38 W/m² | - |
| 1788045327 | 21.67° C | 84% | 1013.5 hPa | 0 mm | - | 42 W/m² | - |
| 1788045023 | 21.67° C | 84% | 1013.5 hPa | 0 mm | - | 43 W/m² | - |
| 1788044721 | 22.22° C | 84% | 1013.3 hPa | 0 mm | - | 44 W/m² | - |
* Rain latest hour (hover to see other rain measurements)
** Current wind speed in m/s (hover to see current wind gust speed)